SAR LUPE 2

导读

SAR LUPE 2是德国(DE)研制的合成孔径雷达成像侦察卫星,属于SAR-Lupe星座的第二颗卫星,于2007年7月2日发射入轨。该卫星配备高分辨率X波段合成孔径雷达,可不受光照、天气影响,全天时全天候对全球区域进行军事侦察监视,为德国及北约提供高精度情报支持,是欧洲自主军事航天侦察体系的重要组成部分。

基本信息
目录编号:
31797
目录名称:
SAR LUPE 2
国际标识:
2007-030A
轨道中心:
EARTH
卫星名称:
SAR LUPE 2
卫星全名:
SAR LUPE 2
卫星状态:
在轨 (已飞行6952 天)
发射日期:
2007-07-02 UTC
国别 :
德国 (DE)
星等 :
--
轨道信息
数据来源 国际轨道数据 AOE轨道数据
星历时间 2026-07-13T22:06:03+0800
13小时前
查看轨道信息
2026-07-13T02:00:00+0800
1天前
查看轨道信息
半长轴 6784.425km 6784.597km
偏心率 0.0004727 0.0004882
轨道倾角 98.106° 98.106°
近地点辐角 208.210° 208.711°
升交点赤经 302.377° 301.430°
平近点角 151.889° 150.240°
近地点 403.081km 403.147km
远地点 409.495km 409.773km
周期 92.689分钟 92.693分钟
每日圈数 15.535787 15.535196
详细信息
使用方式:
暂无
2D轨道图
3D轨道图
轨道高度分析图
轨道倾角分析图
轨道综合分析图
查看轨道综合分析图